HST

Last updated on Tue Sep 16 2025 00:02:14 GMT+0000 (Coordinated Universal Time)

1 20580U 90037B 25258.37594822 .00009313 00000+0 34018-3 0 9990 2 20580 28.4676 153.1653 0002414 351.8347 8.2208 15.26327892746479
UTC large
Height (km)
Speed (km/s)
/
Latitude / Longitude
Inclination (degrees)
Orbital Period (minutes)
Azimuth
Elevation
Range (km)
Doppler Factor

Next 0 passes for location: London (51.5072 / 0.1276)

Sorry there are no passes over London.